Location: Diati
(11.8376°N, 2.5966°E)
Time: 17:27:56
(UTC+00:00)

CZ-4 R/B - Pass Details

Date: 21 September 2020
Orbit: 530 x 600 km, 97.7° (Epoch: 19 October)

Event Time Altitude Azimuth Distance (km) Brightness Sun altitude
Rises 18:35:49 0° 165° (SSE) 2,823 4.8 -13.0°
Reaches altitude 10° 18:37:59 10° 163° (SSE) 1,927 3.9 -13.5°
Maximum altitude 18:42:10 73° 78° (ENE) 627 1.4 -14.5°
Drops below altitude 10° 18:46:22 10° 354° (N) 1,934 4.2 -15.6°
Sets 18:48:32 0° 352° (N) 2,834 5.1 -16.1°
